Flag for U.S.A. Weather past 2 weeks in Ann Arbor, Michigan, U.S.A.

Now
29 °F

Overcast.


Feels Like: 24 °F
Forecast: 23 / 35 °F
Wind: 5 mph from South

Location: Ann Arbor Municipal Airport

Current Time: Dec 21, 2014 at 10:57:14 AM

Latest Report: Dec 21, 2014 at 9:53 AM


Visibility: 6 mi

Pressure: 30.33 "Hg

Humidity: 82%

Dew point: 24 °F

Location of Ann ArborLocation

Historic Weather in Ann Arbor — Graph

°F

Ann Arbor temperature yesterday

Maximum temperature yesterday: 30 °F (at 11:53 AM)
Minimum temperature yesterday: 22 °F (at 11:53 PM)
Average temperature yesterday: 28 °F

Past Weeks' High & Low Weather Summary

 TemperatureHumidityPressure
High54 °F (Dec 14, 2:53 PM)97% (Dec 16, 10:53 AM)30.71 "Hg (Dec 16, 10:53 AM)
Low19 °F (Dec 21, 1:53 AM)34% (Dec 11, 1:53 PM)29.67 "Hg (Dec 16, 6:53 AM)
Average34 °F77%30.18 "Hg
* Reported Dec 6 9:53 AM — Dec 21 9:53 AM, Ann Arbor, Weather by CustomWeather, © 2014

Note: Actual official high and low records may vary slightly from our data, if they occured in-between our weather recording intervals... More about our weather records

Advertising

Ann Arbor weather history for previous 24 hours

 ConditionsComfort  
Time TempWeatherWind HumidityBarometerVisibility
9:53 AM
Dec 21
29 °FOvercast.5 mph82%30.33 "Hg6 mi
8:53 AM28 °FIce fog.No wind89%30.32 "Hg5 mi
7:53 AM26 °FIce fog.No wind92%30.33 "Hg5 mi
6:53 AM26 °FIce fog.No wind92%30.33 "Hg5 mi
5:53 AM26 °FIce fog.No wind92%30.32 "Hg6 mi
4:53 AM26 °FIce fog.No wind92%30.31 "Hg6 mi
3:53 AM25 °FIce fog.No wind92%30.32 "Hg6 mi
2:53 AM23 °FIce fog.No wind92%30.31 "Hg6 mi
1:53 AM19 °FIce fog.No wind96%30.30 "Hg4 mi
12:53 AM21 °FIce fog.No wind92%30.30 "Hg6 mi
11:53 PM
Dec 20
22 °FOvercast.No wind96%30.30 "Hg7 mi
10:53 PM27 °FMostly cloudy.No wind81%30.30 "Hg8 mi
9:53 PM29 °FOvercast.No wind82%30.31 "Hg10 mi
8:53 PM29 °FOvercast.No wind82%30.32 "Hg10 mi
7:53 PM29 °FOvercast.3 mph79%30.32 "Hg10 mi
6:53 PM30 °FOvercast.No wind72%30.30 "Hg10 mi
5:53 PM30 °FOvercast.No wind69%30.30 "Hg10 mi
4:53 PM30 °FOvercast.No wind69%30.29 "Hg10 mi
3:53 PM30 °FOvercast.No wind69%30.28 "Hg10 mi
2:53 PM30 °FOvercast.No wind69%30.28 "Hg10 mi
1:53 PM30 °FOvercast.3 mph66%30.29 "Hg10 mi
12:53 PM30 °FOvercast.5 mph69%30.29 "Hg10 mi
11:53 AM30 °FOvercast.3 mph72%30.32 "Hg10 mi
10:53 AM29 °FOvercast.No wind75%30.34 "Hg10 mi
Weather by CustomWeather, © 2014

See weather overviewHow to use our weather pages